Regional Weather Roundup
Issued by NWS Burlington, VT

Home | Current Version | Previous Version | Text Only | Print | Product List | Glossary On
Versions: 1 2 3 4 5 6 7 8 9 10 11 12 13 14 15 16 17 18 19 20 21 22 23 24 25 26 27 28 29 30 31 32 33 34 35 36 37 38 39 40 41 42 43 44 45 46 47 48 49 50
197
ASUS41 KBTV 200310
RWRBTV
VERMONT REGIONAL WEATHER ROUNDUP
NATIONAL WEATHER SERVICE BURLINGTON VT
1000 PM EST SUN NOV 19 2017

NOTE: "FAIR" INDICATES FEW OR NO CLOUDS BELOW 12,000 FEET WITH NO
SIGNIFICANT WEATHER AND/OR OBSTRUCTIONS TO VISIBILITY.

* THESE REPORTS ARE NOT UNDER NWS QUALITY CONTROL AND/OR DO NOT
  REPORT WEATHER SUCH AS PRECIPITATION AND FOG.

VTZ001>019-200400-
_____VERMONT_____


CITY           SKY/WX    TMP DP  RH WIND       PRES   REMARKS
BURLINGTON     CLOUDY    32  20  61 NW21G26   29.62R WCI  20
MONTPELIER     CLOUDY    30  20  66 NW15G21   29.59R WCI  19
LYNDONVILLE*   FLURRIES  28  22  79 SW17G25   29.54R WCI  15
MIDDLEBURY*    CLOUDY    32  23  70 NW9       29.62R WCI  24
RUTLAND*       CLOUDY    32  19  58 W10G18    29.62R WCI  24
SPRINGFIELD    CLOUDY    34  19  54 W13G23    29.61R WCI  25
HIGHGATE*      CLOUDY    30  22  74 W7G16     29.61R WCI  23
NEWPORT*       LGT SNOW  26  20  77 W7        29.55R WCI  19
BENNINGTON     MOCLDY    33  25  72 SW8       29.64R WCI  26
SUTTON*          N/A     25 N/A N/A MISG        N/A

_____LAKE CHAMPLAIN_____


CITY           SKY/WX    TMP DP  RH WIND       PRES   REMARKS
BURTON ISLAND*   N/A     32  27  80 NW25G35     N/A  WCI  19
COLCHESTER RF*   N/A     32  25  74 NW26G35     N/A  WCI  18

$$

NYZ007-026>031-035-052-083-087-200400-
_____NORTHERN NEW YORK_____


CITY           SKY/WX    TMP DP  RH WIND       PRES   REMARKS
PLATTSBURGH    CLOUDY    30  19  63 W9G29     29.61R WCI  22
SARANAC LAKE   FLURRIES  23  21  92 VRB5G17   29.58R WCI  17
MASSENA        CLOUDY    28  22  78 W12       29.69R WCI  18
OGDENSBURG*    FAIR      29  24  82 NW9G16    29.69R WCI  21
POTSDAM*       CLOUDY    27  27 100 W3        29.68R
WATERTOWN      CLOUDY    32  24  72 W20       29.72R WCI  20
FT DRUM        CLOUDY    28  25  86 W5        29.69R WCI  23
ALBANY         MOCLDY    34  25  69 W9        29.70R WCI  27
GLENS FALLS    CLEAR     33  21  61 SW7       29.66R WCI  27

$$
NHZ002-005-011-200400-
_____NEW HAMPSHIRE_____


CITY           SKY/WX    TMP DP  RH WIND       PRES   REMARKS
LEBANON        CLOUDY    35  21  56 W8        29.58R WCI  29
KEENE          PTCLDY    35  22  58 W8        29.62R WCI  29
MT WASHINGTON  SNOWSHWR   7   7 100 W79G96      N/A  VSB 0   WCI -26
PLYMOUTH       CLOUDY    33  23  65 W8        29.55R WCI  26
WHITEFIELD     CLOUDY    29  21  72 W14       29.52R WCI  18

$$

_____REGIONAL QUEBEC LOCATIONS_____


CITY           SKY/WX    TMP DP  RH WIND       PRES   REMARKS
MONTREAL       FLURRIES  27  19  74 W20G31    29.62R WCI  13
QUEBEC CITY    FLURRIES  27  19  74 W21G29    29.42R WCI  13
SHERBROOKE     FLURRIES  27  21  80 W15G24    29.50R WCI  15

_____REGIONAL ONTARIO LOCATIONS_____


CITY           SKY/WX    TMP DP  RH WIND       PRES   REMARKS
OTTAWA         MOCLDY    25  21  86 W13       29.67R WCI  13

______KEY______
VSB  - VISIBILITY IN MILES
WCI  - WIND CHILL INDEX
HX   - HEAT INDEX
$$
NNNN




USA.gov is the U.S. government's official web portal to all federal, state and local government web resources and services.